Погода в Ефремове

Погода в Ефремове : погода сейчас, прогноз погоды и архив. Всё, что Вы хотите узнать о погоде в Ефремове!

Поиск расширенной информации на нашем сайте:

Другие новости

Новости СМИ2

Главная страница сайта

Новости сайта

03.07.2017

Напоминаем, что на нашем специализированном сайте Метеоцентр.Азия вы можете получить высокодетализированные автоматические прогнозы погоды по пунктам России, СНГ и мира в авиационном формате (включающие направление и скорость ветра, видимость, явления погоды, количество и форму облачности, нижнюю и верхнюю границу облачности).


Погода в Ефремове - сегодня

Время (UTC), дата Ветер
(°,м/с) 
Видим.   Явления Облачность Т
(°С)
Тd
(°С)
f(%) Тe
(°С)
Pmin
(гПа)
dP
(гПа)
Po
(мм)
O2
(г/м3)
Тmin Tmax R s Состояние
почвы
12 20.10.17 290 (З) 10 км    9/8 300 м кучево-дожд., верхняя 
[Cb cap|Ci fib]
+8.6 -1.8 48 +9  1022.1  -0.6  747  292           
15 20.10.17 300 (СЗ) 10 км    9/9 300 м 
[Sc]
+5.8 -1.5 59 +7  1022.3  747  295           
18 20.10.17 310 (СЗ) 10 км    8/0 средняя 
[Ac trans]
+3 -0.4 78 +2  1023.1  0.5  747  298    +8.8       
21 20.10.17 280 (З) 10 км    ясно 
+0.9 -1 87 +2  1023.1  -0.2  747  300           
00 21.10.17 300 (СЗ) 10 км    ясно 
-0.1 -0.9 94 +1  1022.6  -0.6  746  301           
03 21.10.17 270 (З) 10 км    ясно 
-1.2 -1.8 96 -1  1022.1  -0.6  746  302  -1.5         
06 21.10.17 230 (ЮЗ) 10 км    8/0 средняя 
[Ac trans]
+0.4 -0.6 93 +1  1021.6  -0.3  746  300  -2.2         
09 21.10.17 320 (СЗ) 10 км    6/3 600 м средняя 
[Cu hum|Ac trans]
+4.7 +0.5 74 +6  1020.7  -0.5  745  295           
12 21.10.17 360 (С) 10 км    8/5 600 м кучево-дожд., средняя 
[Cb cap|Ac trans]
+5.7 +0.3 68 +5  1019  -1.5  744  294           
15 21.10.17 330 (СЗ) 10 км    4/0 верхняя 
[Ci fib]
+2.9 -1.6 72 +2  1018.9  -0.4  744  297           
18 21.10.17 тихо ()   10 км    9/0 средняя 
[Ac trans]
+0.6 -1.6 85 +1  1019.4  0.3  744  299    +6.8       
21 21.10.17 340 (С) 10 км    9/0 средняя 
[Ac trans]
-0.8 -2.1 91 1019.1  -0.5  744  301           
00 22.10.17 360 (С) 10 км    9/0 средняя 
[Ac trans]
-0.5 -1.5 93 -1  1018.6  -0.4  743  300           
03 22.10.17 030 (СВ) 10 км    9/0 средняя 
[Ac trans]
-0.4 -1.9 90 -1  1018.7  0.1  743  300  -1.3         
06 22.10.17 360 (С) 10 км    8/0 средняя 
[Ac trans]
-0.5 -2.4 87 -1  1019.5  0.7  744  301  -2         
09 22.10.17 360 (С) 10 км    10/5 600 м средняя 
[Sc|Ac und]
+0.8 -2.7 77 1019.7  0.4  744  299           
12 22.10.17 330 (СЗ) 10 км    4/0 средняя 
[Ac trans]
+2.1 -5.8 56 +3  1019.6  744  298           
15 22.10.17 360 (С) 10 км  {ливн. осадки}  9/9 300 м кучево-дожд. 
[Cb cap]
+0.4 -4.3 71 1020.5  0.7  745  300           
18 22.10.17 290 (З) 10 км  {ливн. осадки}  ясно 
-2 -5 80 -1  1021.1  0.3  745  303    +2.6  0.0     
21 22.10.17 250 (З) 10 км    ясно 
-3.2 -5.5 84 -3  1021.7  0.5  745  305           
00 23.10.17 240 (ЮЗ) 10 км    ясно 
-4.2 -6 87 -4  1021.7  -0.1  745  306           
03 23.10.17 230 (ЮЗ) 10 км    ясно 
-4.1 -6.3 85 -5  1021.7  745  306  -4.6         
06 23.10.17 260 (З) 10 км    6/0 средняя 
[Ac trans]
-2.1 -5.7 76 -4  1021.9  0.4  746  303  -4.6        замёрзшая 
09 23.10.17 270 (З) 10 км    6/0 средняя, верхняя 
[Ac trans|Ci fib]
+2.5 -5.1 57 +1  1021.7  0.3  746  298           
12 23.10.17 300 (СЗ) 10 км    8/8 600 м 
[Sc]
+3 -6.3 50 +2  1022.3  0.6  746  298           
Время (UTC), дата Ветер
(°,м/с) 
Видим.   Явления Облачность Т
(°С)
Тd
(°С)
f(%) Тe
(°С)
Pmin
(гПа)
dP
(гПа)
Po
(мм)
O2
(г/м3)
Тmin Tmax R s Состояние
почвы

Для получения пояснительной информации подведите курсор к названию столбца.

ПОГОДА в Ефремове - архив

Всё, что Вы хотите узнать о погоде в Ефремове - удобно и подробно!

Выберите нужную дату (начиная с 1 января 2015* года) и нажмите кнопку "Найти".
Будут отображены архивные сводки погоды по пункту Ефремов, начиная с указанной даты.


Отображать данные в формате CSV (для использования в таблицах Excel)


Внимание! Наш архив погоды предназначен исключительно для личного некоммерческого использования в познавательных целях. Если Вам необходимы официальные справки о состоянии погоды (для производственных, юридических, коммерческих и т.п. целей), обращайтесь в органы Росгидромета.

*Примечание: данная дата относится к архиву по метеостанциям СССР (Россия, СНГ, Балтия).
Архив по метеостанциям Зарубежной Европы и Азии (кроме Китая) хранится 10 дней, по другим регионам земного шара (Китай, Африка, Америка, Австралия, Океания) - 1 день.

Ефремов - район местоположения метеостанции


Название, широта, долгота, высота метеостанции:
Ефремов 53.2°ш. 38.1°д. 215 м над ур. моря [Российская Федерация]

Дополнительная информация

В oтличие oт бoльшинства пoгoдных сайтoв мы публикуем пoдрoбную метеoинфoрмацию в детальнoм прoфессиoнальнoм фoрмате.

Характеристики температуры и влажнoсти вoздуха измеряются на высoте 2 м в тени вдали oт зданий и деревьев.
Скoрoсть ветра измеряется на высoте 10 м (на урoвне рoста челoвека скoрoсть ветра ниже в 1.5-2 раза). Если метеoстанция нахoдится в гoрoде или в лесу, тo скoрoсть ветра занижена на 2-4 м/с пo сравнению с oткрытым местoм. Скoрoсть ветра над акватoриями крупных рек и oзёр, а также на вершинах хoлмoв на 2-5 м/с выше, чем в oбычных услoвиях.
Атмoсфернoе давление в разных тoчках местнoсти мoжет значительнo oтличаться oт давления на метеoстанции, в зависимoсти oт услoвий рельефа (при пoдъёме на 10 м давление пoнижается примернo на 1 мм рт.ст.).